Location: Newark
(19.8968°N, 89.5281°W)
Time: 21:02:19
(UTC+00:00)

Hubble Space Telescope - Visible Passes

Search period start: 22 October 2019 00:00
Search period end: 01 November 2019 00:00
Orbit: 536 x 540 km, 28.5° (Epoch: 21 October)

Date Brightness Start Highest point End Pass type
(mag) Time Alt. Az. Time Alt. Az. Time Alt. Az.
24 Oct 3.4 10:15:20 10° S 10:17:26 14° SSE 10:19:32 10° ESE visible
25 Oct 3.0 10:06:00 17° SSE 10:06:49 18° SSE 10:09:43 10° ESE visible
26 Oct 2.7 09:56:41 24° SE 09:56:41 24° SE 09:59:35 10° E visible
27 Oct 3.0 09:47:15 24° ESE 09:47:15 24° ESE 09:49:19 10° E visible
27 Oct 0.9 11:22:38 10° W 11:26:42 57° NNW 11:30:45 10° ENE visible
28 Oct 3.5 09:37:44 18° E 09:37:44 18° E 09:38:56 10° E visible
28 Oct 1.2 11:13:06 16° W 11:16:10 46° NNW 11:20:08 10° ENE visible
29 Oct 3.9 09:28:07 12° ENE 09:28:07 12° ENE 09:28:28 10° ENE visible
29 Oct 1.5 11:03:28 21° WNW 11:05:40 38° NNW 11:09:32 10° NE visible
30 Oct 1.7 10:53:46 26° NW 10:55:10 33° NNW 10:58:56 10° NE visible
31 Oct 1.8 10:43:59 28° NNW 10:44:42 29° N 10:48:20 10° NE visible
